Sandspit, British Columbia

8:50 AM PDT on July 23, 2016 (GMT -0700)
Sandspit

Weather History for CYZP - January, 2013

Change the Weather History Date:

Tuesday, January 29, 2013

  Actual Average Record
Temperature  
Mean Temperature 42 °F -  
Max Temperature 48 °F 45 °F 50 °F (1997)
Min Temperature 36 °F 37 °F 30 °F (2006)
Degree Days  
Heating Degree Days 23    
Moisture  
Dew Point 39 °F    
Average Humidity 92    
Maximum Humidity 100    
Minimum Humidity 81    
Precipitation  
Precipitation 0.00 in 0.34 in - ()
Sea Level Pressure  
Sea Level Pressure 30.07 in    
Wind  
Wind Speed 9 mph ()    
Max Wind Speed 22 mph    
Max Gust Speed 28 mph    
Visibility 7.6 miles    
Events Rain    
Averages and records for this station are not official NWS values.
T = Trace of Precipitation, MM = Missing Value Source: Averaged Metar Reports

Daily Weather History Graph

Daily Weather History Graph

Search for Another Location

Airport or City:

Trip Planner

Search our weather history database for the weather conditions in past years. The results will help you decide how hot, cold, wet, or windy it might be!

Date:

Astronomy

Jan. 29, 2013 Rise Set
Actual Time 8:35 AM PST 5:26 PM PST
Civil Twilight 7:57 AM PST 6:04 PM PST
Nautical Twilight 7:15 AM PST 6:46 PM PST
Astronomical Twilight 6:34 AM PST 7:27 PM PST
Moon 9:04 PM PST (1/29) 9:05 AM PST (1/29)
Length of Visible Light 10h 07m
Length of Day
8h 50m
Waning Gibbous, 93% of the Moon is Illuminated
Jan 29
Waning Gibbous
Feb 3
Last Quarter
Feb 9
New
Feb 17
First Quarter
Feb 25
Full

Hourly Weather History & Observations

Time (PST) Temp. Windchill Dew Point Humidity Pressure Visibility Wind Dir Wind Speed Gust Speed Precip Events Conditions
12:00 AM 37.4 °F 31.4 °F 33.8 °F 87% 30.12 in 9.0 mi North 8.1 mph - N/A   Overcast
1:00 AM 37.4 °F 33.8 °F 33.8 °F 87% 30.13 in 9.0 mi NNE 4.6 mph - N/A   Overcast
1:32 AM 37.4 °F - 33.8 °F 87% 30.13 in 7.0 mi Calm Calm - N/A   Overcast
2:00 AM 37.4 °F 34.9 °F 33.8 °F 87% 30.12 in 9.0 mi SE 3.5 mph - N/A   Overcast
2:08 AM 37.4 °F 34.9 °F 33.8 °F 87% 30.13 in 9.0 mi SSE 3.5 mph - N/A   Overcast
2:32 AM 37.4 °F 34.9 °F 35.6 °F 93% 30.12 in 5.0 mi SSE 3.5 mph - N/A   Overcast
2:44 AM 37.4 °F 31.4 °F 35.6 °F 93% 30.12 in 6.0 mi SE 8.1 mph - N/A   Overcast
2:47 AM 37.4 °F 31.4 °F 35.6 °F 93% 30.12 in 7.0 mi SE 8.1 mph - N/A   Overcast
2:52 AM 37.4 °F 30.8 °F 35.6 °F 93% 30.11 in 9.0 mi SE 9.2 mph - N/A   Overcast
3:00 AM 37.4 °F 29.8 °F 35.6 °F 93% 30.11 in 9.0 mi SE 11.5 mph - N/A   Overcast
4:00 AM 39 °F - - % 30.10 in - SE 12.7 mph - -  
4:18 AM 39.2 °F 30.8 °F 37.4 °F 93% 30.09 in 5.0 mi SE 15.0 mph - N/A   Overcast
4:29 AM 39.2 °F 30.8 °F 37.4 °F 93% 30.09 in 5.0 mi SE 15.0 mph - N/A   Overcast
4:35 AM 39.2 °F 30.8 °F 37.4 °F 93% 30.09 in 6.0 mi SE 15.0 mph - N/A   Overcast
4:47 AM 39.2 °F 29.8 °F 39.2 °F 100% 30.08 in 5.0 mi SE 18.4 mph - N/A Rain Light Rain
5:00 AM 39.2 °F 30.8 °F 39.2 °F 100% 30.07 in 4.0 mi SSE 15.0 mph 23.0 mph N/A Rain Light Rain
5:03 AM 39.2 °F 30.5 °F 39.2 °F 100% 30.07 in 5.0 mi SSE 16.1 mph 23.0 mph N/A   Overcast
5:07 AM 39.2 °F 30.5 °F 39.2 °F 100% 30.07 in 6.0 mi SSE 16.1 mph 25.3 mph N/A   Overcast
5:12 AM 39.2 °F 29.8 °F 39.2 °F 100% 30.08 in 5.0 mi SSE 18.4 mph 25.3 mph N/A   Overcast
5:44 AM 41.0 °F 31.9 °F 39.2 °F 93% 30.05 in 3.0 mi SE 19.6 mph - N/A Rain Light Rain
6:00 AM 41.0 °F 31.4 °F 41.0 °F 100% 30.01 in 3.0 mi SE 21.9 mph - N/A Rain Light Rain
6:15 AM 41.0 °F 33.5 °F 41.0 °F 100% 30.01 in 4.0 mi SSE 13.8 mph 27.6 mph N/A   Overcast
6:32 AM 39.2 °F 33.6 °F 39.2 °F 100% 30.03 in 6.0 mi WSW 8.1 mph - N/A   Overcast
6:34 AM 39.2 °F 33.6 °F 39.2 °F 100% 30.04 in 7.0 mi WSW 8.1 mph - N/A   Overcast
6:38 AM 39.2 °F 33.0 °F 39.2 °F 100% 30.04 in 9.0 mi WSW 9.2 mph - N/A   Overcast
6:40 AM 39.2 °F 32.5 °F 39.2 °F 100% 30.04 in 9.0 mi WSW 10.4 mph - N/A Rain Light Rain
6:56 AM 39.2 °F 33.0 °F 37.4 °F 93% 30.04 in 5.0 mi SW 9.2 mph - N/A Rain Light Rain
6:58 AM 39.2 °F 34.2 °F 37.4 °F 93% 30.04 in 5.0 mi SSW 6.9 mph - N/A Rain Light Rain
7:00 AM 39.2 °F 35.0 °F 37.4 °F 93% 30.03 in 5.0 mi SSW 5.8 mph - N/A Rain Light Rain
7:01 AM 39.2 °F 35.0 °F 37.4 °F 93% 30.03 in 6.0 mi SSW 5.8 mph - N/A Rain Light Rain
7:55 AM 39.2 °F - 39.2 °F 100% 30.00 in 9.0 mi Variable 2.3 mph - N/A   Overcast
7:58 AM 39.2 °F - 39.2 °F 100% 30.00 in 9.0 mi Variable 2.3 mph - N/A Rain Light Rain
8:00 AM 41.0 °F 39.0 °F 39.2 °F 93% 30.00 in 9.0 mi ESE 3.5 mph - N/A Rain Light Rain
8:14 AM 39.2 °F 37.0 °F 39.2 °F 100% 30.00 in 9.0 mi South 3.5 mph - N/A   Overcast
8:20 AM 39.2 °F - 39.2 °F 100% 30.00 in 9.0 mi Variable 2.3 mph - N/A Rain Light Rain
8:30 AM 41.0 °F - 39.2 °F 93% 30.00 in 9.0 mi Variable 2.3 mph - N/A   Overcast
9:00 AM 41.0 °F - 39.2 °F 93% 30.00 in 9.0 mi Calm Calm - N/A   Overcast
9:49 AM 42.8 °F 38.6 °F 41.0 °F 93% 30.00 in 9.0 mi SE 6.9 mph - N/A   Overcast
10:00 AM 44 °F - - % 30.00 in - SE 6.9 mph - -  
10:00 AM 42.8 °F 38.0 °F 41.0 °F 93% 30.00 in 9.0 mi SSE 8.1 mph - N/A   Overcast
10:21 AM 42.8 °F 37.0 °F 42.8 °F 100% 30.00 in 9.0 mi SSE 10.4 mph - N/A   Overcast
10:50 AM 44.6 °F 43.1 °F 42.8 °F 93% 30.01 in 9.0 mi SSE 3.5 mph - N/A   Overcast
11:00 AM 44.6 °F - 42.8 °F 93% 30.01 in 9.0 mi Variable 2.3 mph - N/A   Overcast
11:55 AM 46.4 °F 40.4 °F 44.6 °F 93% 30.01 in 9.0 mi West 13.8 mph - N/A   Mostly Cloudy
12:00 PM 46.4 °F 40.1 °F 42.8 °F 87% 30.01 in 9.0 mi West 15.0 mph - N/A   Overcast
12:31 PM 46.4 °F 39.5 °F 42.8 °F 87% 30.02 in 9.0 mi WSW 17.3 mph - N/A   Scattered Clouds
1:00 PM 48.2 °F - 44.6 °F 87% 30.03 in 9.0 mi WSW 13.8 mph 20.7 mph N/A   Scattered Clouds
2:00 PM 48.2 °F - 42.8 °F 82% 30.04 in 9.0 mi WSW 20.7 mph - N/A   Overcast
3:00 PM 46.4 °F 40.4 °F 41.0 °F 81% 30.06 in 9.0 mi WSW 13.8 mph 21.9 mph N/A   Overcast
4:00 PM 46 °F - - % 30.08 in - WSW 15.0 mph - -  
4:00 PM 46.4 °F 39.8 °F 41.0 °F 81% 30.08 in 9.0 mi WSW 16.1 mph - N/A   Overcast
4:21 PM 46.4 °F 40.1 °F 41.0 °F 81% 30.09 in 9.0 mi WSW 15.0 mph - N/A   Overcast
4:23 PM 46.4 °F 40.7 °F 41.0 °F 81% 30.09 in 9.0 mi WSW 12.7 mph 19.6 mph N/A   Overcast
4:29 PM 46.4 °F 40.4 °F 41.0 °F 81% 30.09 in 9.0 mi WSW 13.8 mph - N/A   Overcast
4:40 PM 44.6 °F 38.8 °F 39.2 °F 81% 30.10 in 9.0 mi WSW 11.5 mph - N/A   Overcast
5:00 PM 44.6 °F 38.1 °F 39.2 °F 81% 30.11 in 9.0 mi WSW 13.8 mph - N/A   Overcast
6:00 PM 44.6 °F 38.8 °F 39.2 °F 81% 30.13 in 9.0 mi WSW 11.5 mph - N/A   Mostly Cloudy
8:00 PM 44.6 °F 40.2 °F 39.2 °F 81% 30.16 in 9.0 mi WSW 8.1 mph - N/A   Overcast
9:00 PM 44.6 °F 39.2 °F 39.2 °F 81% 30.18 in 9.0 mi WSW 10.4 mph - N/A   Overcast
10:00 PM 44 °F - - % 30.19 in - West 8.1 mph - -  
10:00 PM 44.6 °F 39.7 °F 39.2 °F 81% 30.19 in 9.0 mi West 9.2 mph - N/A   Overcast
11:00 PM 42.8 °F 36.6 °F 39.2 °F 87% 30.20 in 9.0 mi West 11.5 mph - N/A   Overcast